EZS1083 EHRD-LSGG

Flight info

Callsign EZS1083
Flight time N/A
Altitude 39000
Route WOODY N872 NIK M624 BUB DCT REMBA DCT SUTAL DCT GTQ DCT POGOL DCT LASAT DCT MOROK Z24 AKITO
Aircraft A20N/M-SDE2E3FGHIRWXY/LB1

Departure

Time 2026-05-05 18:56
Airport Rotterdam The Hague Airport (EHRD)

Arrival

Time N/A
Airport Geneva International Airport (LSGG)
Time Latitude Longitude Altitude Speed Heading
2026-05-05 18:40 51.94966 4.43638 4 ft 0 kts 327°
2026-05-05 18:51 51.94973 4.43631 4 ft 3 kts 333°
2026-05-05 18:52 51.94991 4.43629 4 ft 3 kts 13°
2026-05-05 18:52 51.95030 4.43640 4 ft 9 kts 352°
2026-05-05 18:52 51.95112 4.43570 5 ft 19 kts 325°
2026-05-05 18:52 51.95232 4.43444 4 ft 16 kts 311°
2026-05-05 18:53 51.95216 4.43338 5 ft 16 kts 238°
2026-05-05 18:53 51.95145 4.43140 5 ft 18 kts 244°
2026-05-05 18:53 51.95115 4.43040 4 ft 0 kts 249°
2026-05-05 18:54 51.95114 4.43037 4 ft 3 kts 251°
2026-05-05 18:55 51.95125 4.42946 5 ft 12 kts 309°
2026-05-05 18:55 51.95206 4.42863 5 ft 8 kts 360°
2026-05-05 18:55 51.95236 4.42895 6 ft 7 kts 46°
2026-05-05 18:55 51.95249 4.42923 5 ft 7 kts 55°
2026-05-05 18:56 51.95411 4.43324 3 ft 76 kts 56°
2026-05-05 18:56 51.95814 4.44329 5 ft 135 kts 54°
2026-05-05 18:56 51.96319 4.45664 434 ft 142 kts 53°
2026-05-05 18:56 51.96825 4.47037 1277 ft 143 kts 58°
2026-05-05 18:57 51.97332 4.48572 1744 ft 169 kts 59°
2026-05-05 18:57 51.97934 4.50430 1979 ft 206 kts 60°
2026-05-05 18:57 51.98642 4.52625 2471 ft 231 kts 60°
2026-05-05 18:57 51.99398 4.54992 2907 ft 240 kts 63°
2026-05-05 18:58 51.99912 4.57479 3486 ft 248 kts 80°
2026-05-05 18:58 51.99797 4.60281 4322 ft 255 kts 104°
2026-05-05 18:58 51.98911 4.62719 4816 ft 267 kts 131°
2026-05-05 18:58 51.97358 4.64481 4982 ft 278 kts 148°
2026-05-05 18:59 51.95564 4.65641 4991 ft 282 kts 164°
2026-05-05 18:59 51.93614 4.65852 4990 ft 283 kts 186°
2026-05-05 18:59 51.91754 4.64919 5082 ft 281 kts 209°
2026-05-05 18:59 51.90259 4.62987 5671 ft 282 kts 230°
2026-05-05 19:00 51.89086 4.60484 6801 ft 276 kts 236°
2026-05-05 19:00 51.87968 4.57953 7766 ft 279 kts 232°
2026-05-05 19:00 51.86518 4.55858 8658 ft 284 kts 211°
2026-05-05 19:00 51.84703 4.54654 9543 ft 289 kts 197°
2026-05-05 19:01 51.82760 4.53808 10307 ft 297 kts 194°
2026-05-05 19:01 51.80675 4.52976 10655 ft 321 kts 194°
2026-05-05 19:01 51.78514 4.52114 11084 ft 338 kts 194°
2026-05-05 19:01 51.76197 4.51179 11773 ft 348 kts 194°
2026-05-05 19:02 51.73842 4.50221 12576 ft 353 kts 193°
2026-05-05 19:02 51.71445 4.49241 13403 ft 358 kts 193°
2026-05-05 19:02 51.69017 4.48248 14177 ft 363 kts 193°
2026-05-05 19:02 51.66692 4.47296 14949 ft 365 kts 193°
2026-05-05 19:03 51.64292 4.46313 15663 ft 370 kts 193°
2026-05-05 19:03 51.61776 4.45284 16447 ft 374 kts 192°
2026-05-05 19:03 51.59252 4.44254 17214 ft 377 kts 193°
2026-05-05 19:03 51.56703 4.43213 18017 ft 380 kts 193°
2026-05-05 19:04 51.54132 4.42164 18699 ft 383 kts 193°
2026-05-05 19:04 51.51548 4.41111 19354 ft 385 kts 193°
2026-05-05 19:04 51.48956 4.40055 19765 ft 385 kts 194°
2026-05-05 19:04 51.46375 4.39006 19877 ft 382 kts 193°
2026-05-05 19:05 51.43800 4.37961 19886 ft 383 kts 193°
2026-05-05 19:05 51.41237 4.36859 19882 ft 383 kts 197°
2026-05-05 19:05 51.38747 4.35375 19884 ft 382 kts 202°
2026-05-05 19:05 51.36322 4.33661 19999 ft 385 kts 204°
2026-05-05 19:06 51.33894 4.31800 20589 ft 389 kts 205°
2026-05-05 19:06 51.31474 4.29897 21366 ft 388 kts 206°
2026-05-05 19:06 51.29064 4.27998 22159 ft 387 kts 206°
2026-05-05 19:06 51.26637 4.26104 22718 ft 392 kts 206°
2026-05-05 19:07 51.24112 4.24383 23154 ft 399 kts 198°
2026-05-05 19:07 51.21427 4.23233 23651 ft 402 kts 189°
2026-05-05 19:07 51.18651 4.22818 24195 ft 403 kts 180°
2026-05-05 19:07 51.15816 4.23222 24635 ft 406 kts 169°
2026-05-05 19:08 51.13147 4.24462 25126 ft 408 kts 158°
2026-05-05 19:08 51.10590 4.26570 25572 ft 411 kts 147°
2026-05-05 19:08 51.08316 4.29222 26042 ft 413 kts 142°
2026-05-05 19:08 51.06094 4.32122 26525 ft 415 kts 140°
2026-05-05 19:09 51.03911 4.35121 26995 ft 416 kts 139°
2026-05-05 19:09 51.01735 4.38154 27447 ft 418 kts 139°
2026-05-05 19:09 50.99548 4.41191 27896 ft 420 kts 140°
2026-05-05 19:09 50.97315 4.44260 28347 ft 421 kts 140°
2026-05-05 19:10 50.95085 4.47291 28764 ft 423 kts 140°
2026-05-05 19:10 50.92874 4.50273 29180 ft 425 kts 140°
2026-05-05 19:10 50.90594 4.53343 29591 ft 426 kts 140°
2026-05-05 19:10 50.88436 4.56461 29974 ft 428 kts 137°
2026-05-05 19:11 50.86274 4.59794 30377 ft 428 kts 136°
2026-05-05 19:11 50.84209 4.63077 30828 ft 426 kts 136°
2026-05-05 19:11 50.82107 4.66447 31289 ft 425 kts 136°
2026-05-05 19:11 50.80039 4.69753 31723 ft 422 kts 136°
2026-05-05 19:12 50.77979 4.73025 32231 ft 419 kts 135°
2026-05-05 19:12 50.75926 4.76262 32657 ft 417 kts 136°
2026-05-05 19:12 50.73877 4.79475 33031 ft 416 kts 136°
2026-05-05 19:12 50.71823 4.82684 33422 ft 415 kts 136°
2026-05-05 19:13 50.69779 4.85868 33807 ft 414 kts 136°
2026-05-05 19:13 50.67729 4.89056 34106 ft 414 kts 136°
2026-05-05 19:13 50.65598 4.92091 34328 ft 414 kts 140°
2026-05-05 19:13 50.63390 4.95010 34535 ft 416 kts 141°
2026-05-05 19:14 50.61157 4.97896 34751 ft 417 kts 142°
2026-05-05 19:14 50.58907 5.00764 34967 ft 418 kts 142°
2026-05-05 19:14 50.56655 5.03617 35171 ft 419 kts 142°
2026-05-05 19:14 50.54382 5.06488 35378 ft 419 kts 142°
2026-05-05 19:15 50.52110 5.09358 35596 ft 420 kts 142°
2026-05-05 19:15 50.49842 5.12223 35835 ft 420 kts 142°
2026-05-05 19:15 50.47573 5.15088 36090 ft 419 kts 142°
2026-05-05 19:15 50.45299 5.17959 36262 ft 420 kts 142°
2026-05-05 19:16 50.43026 5.20827 36427 ft 422 kts 142°
2026-05-05 19:16 50.40733 5.23715 36599 ft 423 kts 142°
2026-05-05 19:16 50.38446 5.26594 36784 ft 424 kts 142°
2026-05-05 19:16 50.36155 5.29473 36954 ft 425 kts 143°
2026-05-05 19:17 50.33847 5.32371 37124 ft 425 kts 143°
2026-05-05 19:17 50.31537 5.35267 37294 ft 426 kts 143°
2026-05-05 19:17 50.29227 5.38159 37472 ft 427 kts 143°
2026-05-05 19:17 50.26911 5.41055 37630 ft 428 kts 143°
2026-05-05 19:18 50.24587 5.43957 37783 ft 429 kts 143°
2026-05-05 19:18 50.22264 5.46853 37945 ft 429 kts 143°
2026-05-05 19:18 50.19933 5.49758 38099 ft 430 kts 143°
2026-05-05 19:18 50.17595 5.52665 38236 ft 431 kts 143°
2026-05-05 19:19 50.15256 5.55571 38364 ft 432 kts 143°
2026-05-05 19:19 50.13024 5.58341 38488 ft 432 kts 143°
2026-05-05 19:19 50.10712 5.61206 38611 ft 433 kts 143°
2026-05-05 19:19 50.08502 5.63941 38723 ft 433 kts 143°
2026-05-05 19:20 50.03725 5.69842 38821 ft 435 kts 143°
2026-05-05 19:20 49.98992 5.75674 38823 ft 435 kts 143°
2026-05-05 19:21 49.94248 5.81506 38821 ft 435 kts 143°
2026-05-05 19:21 49.89506 5.87322 38818 ft 435 kts 143°
2026-05-05 19:22 49.84760 5.93126 38812 ft 435 kts 144°
2026-05-05 19:22 49.80013 5.98911 38808 ft 436 kts 144°
2026-05-05 19:23 49.75254 6.04697 38806 ft 436 kts 144°
2026-05-05 19:23 49.70489 6.10476 38802 ft 436 kts 144°
2026-05-05 19:24 49.65731 6.16233 38801 ft 436 kts 144°
2026-05-05 19:24 49.60962 6.21989 38801 ft 436 kts 144°
2026-05-05 19:25 49.56195 6.27729 38801 ft 436 kts 144°
2026-05-05 19:25 49.51429 6.33453 38804 ft 435 kts 144°
2026-05-05 19:26 49.46548 6.38900 38809 ft 433 kts 153°
2026-05-05 19:26 49.41138 6.42836 38814 ft 430 kts 162°
2026-05-05 19:27 49.35363 6.44783 38817 ft 427 kts 174°
2026-05-05 19:27 49.29456 6.45609 38824 ft 428 kts 178°
2026-05-05 19:28 49.23533 6.46177 38826 ft 428 kts 178°
2026-05-05 19:28 49.17613 6.46755 38827 ft 428 kts 178°
2026-05-05 19:29 49.11686 6.47381 38828 ft 428 kts 177°
2026-05-05 19:29 49.05756 6.48028 38829 ft 428 kts 177°
2026-05-05 19:30 48.99818 6.48678 38829 ft 428 kts 177°
2026-05-05 19:30 48.93889 6.49323 38830 ft 428 kts 177°
2026-05-05 19:31 48.87951 6.49967 38827 ft 428 kts 178°
2026-05-05 19:31 48.82023 6.50608 38830 ft 428 kts 178°
2026-05-05 19:32 48.76099 6.51246 38830 ft 428 kts 178°
2026-05-05 19:32 48.70177 6.51882 38830 ft 428 kts 178°
2026-05-05 19:33 48.64250 6.52518 38820 ft 428 kts 178°
2026-05-05 19:33 48.58328 6.53152 38830 ft 427 kts 178°
2026-05-05 19:34 48.52385 6.53786 38834 ft 427 kts 178°
2026-05-05 19:35 48.43496 6.54733 38840 ft 427 kts 178°
2026-05-05 19:35 48.37587 6.55360 38846 ft 427 kts 178°
2026-05-05 19:36 48.31717 6.55981 38847 ft 426 kts 178°
2026-05-05 19:36 48.25815 6.56605 38857 ft 427 kts 178°
2026-05-05 19:37 48.20088 6.57209 38857 ft 426 kts 178°
2026-05-05 19:37 48.14200 6.57835 38856 ft 425 kts 178°
2026-05-05 19:38 48.08306 6.58452 38559 ft 425 kts 178°
2026-05-05 19:38 48.05362 6.58759 38282 ft 425 kts 178°
2026-05-05 19:38 48.02418 6.59065 38005 ft 424 kts 178°
2026-05-05 19:38 47.99482 6.59370 37516 ft 424 kts 178°
2026-05-05 19:39 47.96554 6.59675 36979 ft 422 kts 178°
2026-05-05 19:39 47.93637 6.59979 36431 ft 421 kts 178°
2026-05-05 19:39 47.90829 6.60272 35892 ft 421 kts 178°
2026-05-05 19:39 47.87857 6.60580 35320 ft 421 kts 178°
2026-05-05 19:40 47.84945 6.60883 34767 ft 421 kts 178°
2026-05-05 19:40 47.82030 6.61185 34203 ft 421 kts 178°
2026-05-05 19:40 47.79145 6.61485 33666 ft 420 kts 178°
2026-05-05 19:40 47.76237 6.61788 33022 ft 420 kts 178°
2026-05-05 19:41 47.73331 6.62089 32400 ft 419 kts 178°
2026-05-05 19:41 47.70431 6.62388 31787 ft 418 kts 178°
2026-05-05 19:41 47.67530 6.62686 31153 ft 418 kts 178°
2026-05-05 19:41 47.64643 6.62984 30612 ft 416 kts 178°
2026-05-05 19:42 47.61769 6.63279 30111 ft 412 kts 177°
2026-05-05 19:42 47.58932 6.63574 29664 ft 407 kts 178°
2026-05-05 19:42 47.56129 6.63875 29145 ft 402 kts 178°
2026-05-05 19:42 47.53351 6.64164 28389 ft 402 kts 178°
2026-05-05 19:43 47.50530 6.64448 27258 ft 412 kts 178°
2026-05-05 19:43 47.47643 6.64735 26114 ft 422 kts 178°
2026-05-05 19:43 47.44681 6.65030 24959 ft 432 kts 178°
2026-05-05 19:43 47.41662 6.65334 23924 ft 439 kts 178°
2026-05-05 19:44 47.38625 6.65420 23254 ft 434 kts 182°
2026-05-05 19:44 47.35647 6.65358 22901 ft 422 kts 182°
2026-05-05 19:44 47.32788 6.65280 22869 ft 403 kts 183°
2026-05-05 19:44 47.30054 6.65203 22875 ft 384 kts 182°
2026-05-05 19:45 47.27447 6.65125 22780 ft 369 kts 183°
2026-05-05 19:45 47.24909 6.64923 22301 ft 364 kts 188°
2026-05-05 19:45 47.22445 6.64167 21722 ft 362 kts 198°
2026-05-05 19:45 47.20146 6.62721 21185 ft 359 kts 210°
2026-05-05 19:46 47.18107 6.60655 20722 ft 356 kts 219°
2026-05-05 19:46 47.16238 6.58284 20140 ft 356 kts 221°
2026-05-05 19:46 47.14405 6.55855 19599 ft 354 kts 222°
2026-05-05 19:46 47.12586 6.53440 19117 ft 352 kts 222°
2026-05-05 19:47 47.10779 6.51054 18633 ft 349 kts 222°
2026-05-05 19:47 47.08977 6.48684 18127 ft 348 kts 222°
2026-05-05 19:47 47.07183 6.46334 17577 ft 345 kts 222°
2026-05-05 19:47 47.05401 6.44002 17053 ft 342 kts 221°
2026-05-05 19:48 47.03634 6.41695 16554 ft 339 kts 221°
2026-05-05 19:48 47.01881 6.39408 16066 ft 336 kts 219°
2026-05-05 19:48 47.00139 6.37150 15903 ft 334 kts 221°
2026-05-05 19:48 46.98422 6.34923 15891 ft 333 kts 222°
2026-05-05 19:49 46.96695 6.32679 15694 ft 332 kts 221°
2026-05-05 19:49 46.95544 6.31187 15334 ft 332 kts 221°
2026-05-05 19:49 46.93217 6.28364 14656 ft 329 kts 211°
2026-05-05 19:49 46.91081 6.27232 14156 ft 330 kts 189°
2026-05-05 19:50 46.88797 6.27364 13747 ft 330 kts 172°
2026-05-05 19:50 46.86647 6.27965 13852 ft 270 kts 195°
2026-05-05 19:50 46.85325 6.27230 15060 ft 179 kts 183°
2026-05-05 19:50 46.84551 6.26362 11950 ft 198 kts 277°
2026-05-05 19:51 46.85154 6.23836 12580 ft 136 kts 276°
2026-05-05 19:51 46.85329 6.23469 15265 ft 37 kts
2026-05-05 19:51 46.85653 6.23452 12683 ft 81 kts 33°